Погода в Тищенском

Россия / Ставропольский край     45°27′50″N   41°40′41″E
темп.,
°C
ветер,
м/с
пор.,
м/с
влажн.,
%
обл.,
%
осадки,
мм/ч
давл.,
гПа
погр.,
м
28 февраля, вс
вс2800:00+4зюз71493100 3.1 1015534
03:00+4з61395100 7.0 1016613
06:00+3ссв1399100 3.0 101681
09:00+3с2498100 5.0 1016185
12:00+3сз2397100 1.6 1017238
15:00+6сз2374100 1.7 1017746
18:00+4ссз2483100 0.1 1018133
21:00+2сз228996 0.2 102052
1 марта, пн
пн100:00+1ссз118891 0.0 102122
03:000з239281 0.0 102267
06:00+1зюз239893 0.2 1023181
09:00+1зсз469296 0.7 1025373
12:00+2з3588100 0.1 1025500
15:00+4з2377100 0.3 1026563
18:00+2з1289100 0.3 1027240
21:00+1ююз2290100 0.3 102822
2 марта, вт
вт200:000юз239391 0.0 102850
03:000зюз239581 0.0 102989
06:000зюз239481 0.0 102973
09:00+2зюз467743 0.0 1029527
12:00+4з686936 0.0 10271129
15:00+4з7107068 0.1 10251218
18:00+3з5117295 0.0 1024820
21:00+2з7157597 0.0 1023950
3 марта, ср
ср300:00+1з91775100 0.0 10211005
03:00+2зюз11207596 0.0 10191032
06:00+3з122171100 0.0 10181118
09:00+2з121995100 1.1 10181195
12:00+1з81397100 5.0 1018620
15:00+3зсз61085100 5.6 1019822
18:00+2з488981 0.2 1022233
21:00+1зсз349482 0.4 102596
4 марта, чт
чт400:000з238787 0.0 102647
03:00−1зюз348765 0.0 102694
06:00−1зюз358795 0.0 1027132
09:00+1зюз357758 0.0 1028361
12:00+4з446220 0.0 10261047
15:00+5зюз455923 0.0 10251129
18:00+3юз23710 0.0 102423
21:00+1юз34780 0.0 102464